Weather History for Crestview, FL

Change the Weather History Date:

Wednesday, November 9, 2011

  Actual Average Record
Temperature  
Mean Temperature 63 °F -  
Max Temperature 73 °F - - ()
Min Temperature 53 °F - - ()
Degree Days  
Heating Degree Days 2    
Growing Degree Days 13 (Base 50)    
Moisture  
Dew Point 57 °F    
Average Humidity 91    
Maximum Humidity 100    
Minimum Humidity 68    
Precipitation  
Precipitation 0.30 in - - ()
Sea Level Pressure  
Sea Level Pressure 30.07 in    
Wind  
Wind Speed 2 mph (SSE)    
Max Wind Speed 20 mph    
Max Gust Speed 25 mph    
Visibility 6 miles    
Events Rain    
T = Trace of Precipitation, MM = Missing Value Source: NWS Daily Summary

Daily Weather History Graph

Daily Weather History Graph

Search for Another Location

Airport:

Trip Planner

Search our weather history database for the weather conditions in past years. The results will help you decide how hot, cold, wet, or windy it might be!

Date:

Astronomy

Nov. 09, 2011 Rise Set
Actual Time 6:07 AM CST 4:52 PM CST
Civil Twilight 5:41 AM CST 5:17 PM CST
Nautical Twilight 5:13 AM CST 5:46 PM CST
Astronomical Twilight 4:44 AM CST 6:14 PM CST
Moon 4:04 PM CST (11/9) 5:02 AM CST (11/9)
Length of Visible Light 11h 35m
Length of Day
10h 45m
Waxing Gibbous, 99% of the Moon is Illuminated
Nov 9
Waxing Gibbous
Nov 10
Full
Nov 18
Last Quarter
Nov 25
New
Dec 2
First Quarter

Hourly Weather History & Observations

Time (CST) Temp. Dew Point Humidity Pressure Visibility Wind Dir Wind Speed Gust Speed Precip Events Conditions
12:00 AM 57.2 °F 55.4 °F 94% 30.09 in 1.2 mi Calm Calm - N/A   Clear
12:01 AM 57.2 °F 55.4 °F 94% 30.09 in 1.0 mi Calm Calm - N/A   Clear
12:02 AM 57.2 °F 55.4 °F 94% 30.09 in 0.8 mi Calm Calm - N/A   Clear
12:32 AM 55.4 °F 53.6 °F 94% 30.09 in 1.0 mi Calm Calm - N/A   Clear
12:34 AM 55.4 °F 53.6 °F 94% 30.09 in 1.2 mi Calm Calm - N/A   Clear
12:36 AM 55.4 °F 53.6 °F 94% 30.09 in 1.5 mi Calm Calm - N/A   Clear
12:38 AM 55.4 °F 55.4 °F 100% 30.08 in 2.0 mi Calm Calm - N/A   Clear
12:39 AM 55.4 °F 55.4 °F 100% 30.09 in 2.5 mi Calm Calm - N/A   Clear
12:41 AM 55.4 °F 53.6 °F 94% 30.08 in 3.0 mi Calm Calm - N/A   Clear
12:55 AM 55.8 °F 55.0 °F 97% 30.08 in 10.0 mi Calm Calm - N/A   Clear
1:55 AM 57.4 °F 56.5 °F 97% 30.08 in 10.0 mi Calm Calm - N/A   Scattered Clouds
2:55 AM 57.7 °F 56.5 °F 96% 30.09 in 10.0 mi Calm Calm - N/A   Clear
3:50 AM 55.4 °F 53.6 °F 94% 30.09 in 2.5 mi Calm Calm - N/A   Clear
3:52 AM 55.4 °F 53.6 °F 94% 30.09 in 2.0 mi Calm Calm - N/A   Clear
3:54 AM 55.4 °F 53.6 °F 94% 30.09 in 1.8 mi Calm Calm - N/A   Clear
3:55 AM 54.7 °F 53.6 °F 96% 30.09 in 2.0 mi Calm Calm - N/A   Clear
3:58 AM 53.6 °F 53.6 °F 100% 30.09 in 2.0 mi Calm Calm - N/A   Clear
3:59 AM 53.6 °F 53.6 °F 100% 30.09 in 2.5 mi Calm Calm - N/A   Clear
4:03 AM 53.6 °F 53.6 °F 100% 30.09 in 3.0 mi Calm Calm - N/A   Partly Cloudy
4:06 AM 53.6 °F 53.6 °F 100% 30.09 in 2.5 mi Calm Calm - N/A   Partly Cloudy
4:07 AM 53.6 °F 53.6 °F 100% 30.09 in 2.0 mi Calm Calm - N/A   Partly Cloudy
4:09 AM 53.6 °F 53.6 °F 100% 30.09 in 1.8 mi Calm Calm - N/A   Partly Cloudy
4:10 AM 53.6 °F 53.6 °F 100% 30.09 in 2.0 mi Calm Calm - N/A   Partly Cloudy
4:15 AM 53.6 °F 53.6 °F 100% 30.09 in 2.5 mi Calm Calm - N/A   Partly Cloudy
4:16 AM 53.6 °F 53.6 °F 100% 30.09 in 3.0 mi Calm Calm - N/A   Partly Cloudy
4:55 AM 53.8 °F 52.9 °F 97% 30.09 in 10.0 mi Calm Calm - N/A   Clear
5:14 AM 53.6 °F 51.8 °F 94% 30.10 in 2.5 mi Calm Calm - N/A   Clear
5:15 AM 53.6 °F 53.6 °F 100% 30.10 in 3.0 mi Calm Calm - N/A   Clear
5:55 AM 57.4 °F 56.8 °F 98% 30.09 in 10.0 mi East 3.5 mph - N/A   Clear
6:55 AM 61.9 °F 60.4 °F 95% 30.09 in 10.0 mi ESE 6.9 mph - N/A   Clear
7:55 AM 67.5 °F 61.3 °F 81% 30.09 in 10.0 mi ESE 4.6 mph - N/A   Clear
8:55 AM 70.2 °F 62.1 °F 75% 30.09 in 10.0 mi SE 5.8 mph - N/A   Mostly Cloudy
9:55 AM 72.0 °F 62.2 °F 71% 30.06 in 10.0 mi SSE 8.1 mph - N/A   Mostly Cloudy
10:55 AM 73.4 °F 62.1 °F 68% 30.08 in 10.0 mi South 9.2 mph - N/A   Mostly Cloudy
11:55 AM 73.2 °F 63.0 °F 70% 30.06 in 10.0 mi SSE 9.2 mph - N/A   Mostly Cloudy
12:55 PM 73.6 °F 63.1 °F 70% 30.04 in 10.0 mi South 9.2 mph - N/A   Mostly Cloudy
1:55 PM 73.2 °F 63.5 °F 71% 30.01 in 10.0 mi SSE 10.4 mph - N/A   Mostly Cloudy
2:55 PM 73.9 °F 63.5 °F 70% 30.01 in 10.0 mi SSE 9.2 mph - N/A   Mostly Cloudy
3:55 PM 72.7 °F 64.2 °F 75% 29.99 in 10.0 mi SSE 8.1 mph - N/A   Mostly Cloudy
4:55 PM 70.3 °F 64.6 °F 82% 29.99 in 10.0 mi South 6.9 mph - N/A   Mostly Cloudy
5:55 PM 69.1 °F 65.1 °F 87% 30.00 in 10.0 mi South 5.8 mph - N/A   Mostly Cloudy
6:55 PM 67.8 °F 65.5 °F 92% 30.01 in 10.0 mi SSE 4.6 mph - N/A   Mostly Cloudy
7:55 PM 66.9 °F 65.1 °F 94% 30.00 in 10.0 mi SSE 4.6 mph - N/A   Mostly Cloudy
8:39 PM 66.2 °F 66.2 °F 100% 30.01 in 10.0 mi NW 19.6 mph 25.3 mph N/A Rain Light Rain Showers
8:55 PM 63.7 °F 60.1 °F 88% 30.05 in 7.0 mi NNW 16.1 mph 20.7 mph 0.00 in Rain Light Rain Showers
9:35 PM 59.0 °F 55.4 °F 88% 30.04 in 10.0 mi NNW 12.7 mph - N/A   Light Drizzle
9:55 PM 58.5 °F 56.1 °F 92% 30.05 in 10.0 mi NNW 8.1 mph - 0.00 in   Light Drizzle
10:55 PM 57.6 °F 56.1 °F 95% 30.05 in 7.0 mi NNW 12.7 mph - 0.10 in Rain Light Rain
11:55 PM 56.5 °F 55.0 °F 95% 30.05 in 4.0 mi NNW 9.2 mph - 0.20 in Rain Light Rain